SL-16 DEB, 23708

Orbit data source: Space-Track

SL-16 DEB, 23708 is space debris in LEO originally from a launch on Tue, 31 Oct 1995 UTC launched from the Tyuratam Missile And Space Complex (TTMTR). Debris objects in space refer to the collection of defunct objects orbiting the Earth. Examples of debris include non-operational satellites, rocket bodies, and fragments generated from explosions, collisions, or faulty payload assembly.

Loading next visibility...
Identifier
23708, 1995-058E
Orbit
LEO
Last TLE update
14 hours ago
Origin
Manufacturer
Yuzhnoe
Mission
Spacecraft
Bus & Motor
SEP MOTOR COVER, Unknown motor
Mass
~0 kg wet, ~1 kg dry
Launch date (UTC)
1995-10-31 (30 years ago)
Launch vehicle
Unknown
Launch site
Tyuratam Missile And Space Complex (TTMTR)
Object type
Payload
Rocket body
Debris
Shape & HBR
Unknown
Radar Cross Section
Small (<0.1 m²)

Expand to show TLE details & history

TLE from 14 hours ago
0 SL-16 DEB
1 23708U 95058E   25186.74812238  .00000027  00000-0  62355-4 0  9998
2 23708  71.0515   3.2484 0184365  29.7760  63.7704 13.76637727490436
Epoch: 2025-07-05T17:57Z
TLE epoch observation values (Epoch: 2025-07-05T17:57:17.773Z)
Latitude
70.4016°
Longitude
-83.63368°
Altitude
929.572 km
Speed
7.423 km/s
True Right ascension
07h 18m 41s
True Declination
70° 17' 43"
Sunlit
Object was in daylight at epoch
Visualization orbit readout
Latitude
57.87387°
Longitude
-44.1579°
Altitude
976.964 km
Speed
7.373 km/s
Apparent Right ascension
08h 50m 40s
Apparent Declination
14° 03' 07"
Sunlit
Object is in daylight
Visualization observer readout
Local Sidereal Time
19:58:12
Azimuth
344.473° N
Elevation
-34.668°
Doppler factor
1
Orbital elements
Apogee altitude
1,109.337 km
Perigee altitude
838.249 km
Semi-major axis
7,351.93 km
Eccentricity
0.01844
Inclination
71.0515°
RAAN
3.2484°
Arg. of periapsis
29.776°
True anomaly
Unknown
Mean anomaly
63.7704°
Eccentric anomaly
Unknown
Mean motion
3.44303 °/min
Orbital period
104.56 mins
BSTAR
0.000062355
Loading maneuver chart data...
Loading SW <> Apogee altitude chart data...
Loading historical data...
Loading historical data...
Loading historical data...
Loading historical data...
Loading historical data...
Loading historical data...
Loading historical data...

SL-16 DEB Visibility forecast

Observer location: undefined°, undefined°

Span
Click to sort rows by Start time (UTC) header in descending order
Start Az.
Max El. time (UTC)
Max El. Az.
Max El.
End time (UTC)
End Az.
10 mins2025-07-06 12:48:26.440Z184.521° SSW2025-07-06 12:52:26.440Z132.289° SE40.035°2025-07-06 12:58:26.440Z30.509° NE
6 mins2025-07-06 14:37:26.440Z271.272° WNW2025-07-06 14:40:26.440Z309.541° NW18.927°2025-07-06 14:43:26.440Z346.383° N
10 mins2025-07-06 21:57:26.440Z357.231° N2025-07-06 22:02:26.440Z64.504° ENE31.445°2025-07-06 22:07:26.440Z122.436° SE
10 mins2025-07-06 23:44:26.440Z315.154° NNW2025-07-06 23:49:26.440Z249.55° W31.041°2025-07-06 23:54:26.440Z194.33° SSW
|